x

9099064 - Duluth, Mn (dulm5) Weather Station

1:54am - Sat 1st Aug 2015 All times are CDT. -5 hours from GMT.

  • Wind
    14mph, 17mph gusts
  • Air Temp 65°f
  • Sea Pressure 1012.3mb
  • 9099064 - Duluth, Mn
  • 9099064 - Duluth, Mn

More Historic Weather Station data

Upgrade to MSW Pro to gain access to the past 30 days of data for over 8000 Wavebouys and Weather Stations around the globe.

Join Pro

Comparision Forecast

View Surf forecast
   
Sat 08/01 1:54am 14 17 mph 1012.3mb 65f
1:48am  -  mph 1012.3mb 65f
1:42am  -  mph 1012.3mb 65f
1:36am  -  mph 1012.3mb 65f
1:30am 14 17 mph 1012.4mb 65f
1:24am 14 15 mph 1012.4mb 65f
1:18am 13 15 mph 1012.5mb 65f
1:12am 14 17 mph 1012.5mb 65f
1:06am 14 16 mph 1012.5mb 65f
1:00am 14 17 mph 1012.5mb 65f
12:54am 14 16 mph 1012.5mb 65f
12:48am 14 15 mph 1012.5mb 65f
12:42am 14 15 mph 1012.5mb 65f
12:36am 14 15 mph 1012.5mb 65f
12:30am 14 15 mph 1012.5mb 65f
12:24am 14 16 mph 1012.5mb 65f
12:18am 13 15 mph 1012.5mb 65f
12:12am 14 16 mph 1012.4mb 66f
12:06am 14 16 mph 1012.4mb 67f
12:00am 14 15 mph 1012.4mb 67f
Fri 07/31 11:54pm 14 15 mph 1012.4mb 67f
11:48pm 14 16 mph 1012.3mb 67f
11:42pm 14 16 mph 1012.4mb 68f
11:36pm 14 15 mph 1012.3mb 68f
11:30pm 13 14 mph 1012.3mb 68f
11:24pm 11 14 mph 1012.2mb 68f
11:18pm 13 14 mph 1012.2mb 68f
11:12pm 11 14 mph 1012.2mb 68f
11:06pm 11 13 mph 1012.2mb 68f
11:00pm 10 11 mph 1012.1mb 69f
10:54pm 10 11 mph 1012.1mb 69f
10:48pm 10 11 mph 1012.1mb 69f
10:42pm 10 11 mph 1012.1mb 68f
10:36pm 11 14 mph 1012.1mb 68f
10:30pm 13 14 mph 1012.1mb 69f
10:24pm 9 13 mph 1012mb 69f
10:18pm 8 10 mph 1012.1mb 69f
10:12pm 9 10 mph 1012.1mb 69f
10:06pm 9
mph
1012.1mb 69f
10:00pm 9 10 mph 1012mb 69f
9:54pm 9 11 mph 1012mb 69f
9:48pm 9
mph
1011.9mb 70f
9:42pm 8 9 mph 1011.9mb 69f
9:36pm 8 9 mph 1011.8mb 70f
9:30pm 8 9 mph 1011.7mb 71f
9:24pm 7 8 mph 1011.6mb 71f
9:18pm 6 9 mph 1011.6mb 71f
9:12pm 7 8 mph 1011.6mb 72f
9:06pm 6 7 mph 1011.6mb 73f
9:00pm 6 7 mph 1011.5mb 73f
8:54pm 6 8 mph 1011.5mb 73f
8:48pm 6 9 mph 1011.5mb 74f
8:42pm 8 10 mph 1011.4mb 74f
8:36pm 8 10 mph 1011.4mb 74f
8:30pm 9 10 mph 1011.4mb 74f
8:24pm 8 11 mph 1011.4mb 75f
8:18pm 7 13 mph 1011.3mb 75f
8:12pm 9 14 mph 1011.3mb 76f
8:06pm 8 10 mph 1011.3mb 75f
8:00pm 9 15 mph 1011.3mb 76f
7:54pm 8 14 mph 1011.2mb 76f
7:48pm 10 13 mph 1011.2mb 76f
7:42pm 10 13 mph 1011.2mb 77f
7:36pm 10 15 mph 1011.1mb 77f
7:30pm 11 14 mph 1011.1mb 77f
7:24pm 11 15 mph 1011.2mb 77f
7:18pm 15 20 mph 1011.1mb 78f
7:12pm 13 18 mph 1011.1mb 77f
7:06pm 17 22 mph 1011.2mb 78f
7:00pm 14 21 mph 1011.2mb 78f
6:54pm 14 23 mph 1011.3mb 77f
6:48pm 15 26 mph 1011.3mb 78f
6:42pm 18 30 mph 1011.3mb 78f
6:36pm 18 23 mph 1011.4mb 78f
6:00pm 16 23 mph 1011.4mb 78f
5:54pm 18 28 mph 1011.4mb 78f
5:48pm 20 25 mph 1011.3mb 78f
5:42pm 14 26 mph 1011.3mb 78f
5:36pm 13 24 mph 1011.4mb 78f
5:30pm 17 26 mph 1011.5mb 78f
5:24pm 18 23 mph 1011.5mb 79f
5:18pm 13 26 mph 1011.5mb 79f
5:12pm 18 25 mph 1011.5mb 78f
5:06pm 20 26 mph 1011.5mb 78f
5:00pm 17 28 mph 1011.5mb 78f
4:54pm 18 29 mph 1011.5mb 78f
4:48pm 22 30 mph 1011.5mb 78f
4:42pm 21 29 mph 1011.5mb 78f
4:36pm 22 31 mph 1011.5mb 78f
4:30pm 18 29 mph 1011.5mb 79f
4:24pm 21 32 mph 1011.4mb 78f
4:18pm 20 29 mph 1011.5mb 79f
4:12pm 22 31 mph 1011.4mb 78f
4:06pm 17 25 mph 1011.4mb 78f
4:00pm 16 23 mph 1011.5mb 78f
3:54pm 20 32 mph 1011.6mb 78f
3:48pm 21 26 mph 1011.6mb 78f
3:42pm 21 25 mph 1011.8mb 78f
3:36pm 21 31 mph 1011.8mb 78f
3:30pm 24 32 mph 1011.8mb 78f
3:24pm 16 29 mph 1011.8mb 78f
3:18pm 23 33 mph 1011.7mb 78f
3:12pm 18 26 mph 1011.8mb 78f
3:06pm 17 28 mph 1011.8mb 78f
3:00pm 26 32 mph 1011.7mb 77f
2:54pm 25 32 mph 1012mb 78f
2:48pm 17 23 mph 1011.9mb 78f
2:42pm 20 26 mph 1012mb 77f
2:36pm 16 25 mph 1012.1mb 76f
2:30pm 21 29 mph 1012.2mb 77f
2:24pm 18 28 mph 1012.3mb 77f
2:18pm 15 23 mph 1012.3mb 77f
2:12pm 18 24 mph 1012.4mb 77f
2:06pm 17 26 mph 1012.3mb 77f
2:00pm 20 25 mph 1012.4mb 76f
1:54pm 17 26 mph 1012.5mb 76f
1:48pm 15 23 mph 1012.4mb 76f
1:42pm 15 25 mph 1012.5mb 76f
1:36pm 17 24 mph 1012.6mb 76f
1:30pm 18 26 mph 1012.8mb 76f
1:24pm 17 24 mph 1012.8mb 76f
1:18pm 15 28 mph 1012.7mb 76f
1:12pm 15 22 mph 1012.8mb 75f
1:06pm 16 26 mph 1012.9mb 75f
1:00pm 18 28 mph 1013mb 75f
12:54pm 16 22 mph 1013.2mb 75f
12:48pm 17 24 mph 1013.3mb 75f
12:42pm 22 26 mph 1013.3mb 75f
12:36pm 15 18 mph 1013.3mb 74f
12:30pm 21 25 mph 1013.4mb 75f
12:24pm 17 28 mph 1013.5mb 75f
12:18pm 17 22 mph 1013.4mb 74f
12:12pm 17 18 mph 1013.6mb 74f
12:06pm 21 23 mph 1013.6mb 73f
12:00pm 18 25 mph 1013.6mb 74f
11:54am 18 24 mph 1013.6mb 74f
11:48am 14 22 mph 1013.7mb 73f
11:42am 16 22 mph 1013.6mb 74f
11:36am 11 21 mph 1013.6mb 74f
11:30am 18 23 mph 1013.7mb 73f
11:24am 17 24 mph 1013.7mb 73f
11:18am 13 21 mph 1013.5mb 73f
11:12am 17 26 mph 1013.6mb 73f
11:06am 18 26 mph 1013.7mb 73f
11:00am 14 25 mph 1013.6mb 73f
10:54am 16 24 mph 1013.6mb 73f
10:48am 18 24 mph 1013.7mb 73f
10:42am 13 17 mph 1013.6mb 72f
10:36am 15 21 mph 1013.6mb 72f
10:30am 16 25 mph 1013.6mb 71f
10:24am 13 25 mph 1013.6mb 71f
10:18am 14 25 mph 1013.6mb 71f
10:12am 14 24 mph 1013.5mb 71f
10:06am 16 22 mph 1013.6mb 70f
10:00am 16 24 mph 1013.6mb 70f
9:54am 13 29 mph 1013.6mb 70f
9:48am 15 25 mph 1013.7mb 70f
9:42am 20 25 mph 1013.7mb 70f
9:36am 14 18 mph 1013.7mb 70f
9:30am 14 18 mph 1013.7mb 70f
9:24am 15 23 mph 1013.7mb 70f
9:18am 17 22 mph 1013.7mb 69f
9:12am 11 20 mph 1013.6mb 69f
9:06am 16 22 mph 1013.6mb 69f
9:00am 10 18 mph 1013.5mb 69f
8:54am 17 20 mph 1013.5mb 69f
8:48am 11 17 mph 1013.5mb 69f
8:42am 13 20 mph 1013.5mb 68f
8:36am 10 14 mph 1013.5mb 68f
8:30am 15 18 mph 1013.5mb 68f
8:24am 15 18 mph 1013.5mb 67f
8:18am 14 18 mph 1013.5mb 67f
8:12am 11 17 mph 1013.5mb 67f
8:06am 14 21 mph 1013.4mb 67f
8:00am 13 20 mph 1013.4mb 67f
7:54am 15 18 mph 1013.3mb 66f
7:48am 14 20 mph 1013.3mb 66f
7:42am 17 23 mph 1013.3mb 66f
7:36am 15 22 mph 1013.3mb 65f
7:30am 17 23 mph 1013.2mb 65f
7:24am 18 22 mph 1013.1mb 65f
7:18am 16 22 mph 1013mb 65f
7:12am 17 23 mph 1012.9mb 65f
7:06am 18 22 mph 1012.8mb 65f
7:00am 17 22 mph 1012.7mb 65f
6:54am 16 23 mph 1012.7mb 64f
6:48am 17 22 mph 1012.7mb 64f
6:42am 18 22 mph 1012.7mb 64f
6:36am 17 22 mph 1012.7mb 64f
6:30am 18 22 mph 1012.7mb 65f
6:24am 15 20 mph 1012.6mb 64f
6:18am 15 20 mph 1012.5mb 65f
6:12am 17 21 mph 1012.4mb 65f
6:06am 16 18 mph 1012.3mb 65f
6:00am 16 18 mph 1012.3mb 65f
5:54am 16 21 mph 1012.3mb 65f
5:48am 15 20 mph 1012.2mb 65f
5:42am 15 18 mph 1012.2mb 65f
5:36am 14 20 mph 1012.2mb 65f
5:30am 14 17 mph 1012.2mb 65f
5:24am 14 18 mph 1012.2mb 65f
5:18am 15 18 mph 1012.2mb 66f
5:12am 14 18 mph 1012.2mb 66f
5:06am 13 17 mph 1012.2mb 66f
5:00am 14 16 mph 1012.1mb 66f
4:54am 15 17 mph 1012.1mb 67f
4:48am 13 21 mph 1012mb 67f
4:42am 14 18 mph 1012mb 67f
4:36am 14 20 mph 1011.9mb 67f
4:30am 16 20 mph 1011.8mb 67f
4:24am 16 20 mph 1011.8mb 67f
4:18am 15 20 mph 1011.8mb 67f
4:12am 13 17 mph 1011.8mb 67f
4:06am 14 17 mph 1011.8mb 67f
4:00am 14 17 mph 1011.8mb 67f
3:54am 14 17 mph 1011.7mb 68f
3:48am 15 18 mph 1011.7mb 68f
3:42am 14 17 mph 1011.7mb 68f
3:36am 14 16 mph 1011.8mb 68f
3:30am 14 17 mph 1011.8mb 68f
3:24am 13 17 mph 1011.8mb 68f
3:18am 14 18 mph 1011.8mb 68f
3:12am 14 16 mph 1011.8mb 68f
3:06am 11 14 mph 1011.8mb 68f
3:00am 9 13 mph 1011.8mb 68f
2:54am 11 15 mph 1011.7mb 69f
2:48am 11 15 mph 1011.7mb 69f
2:42am 13 17 mph 1011.7mb 69f
2:36am 14 16 mph 1011.6mb 69f
2:30am 14 18 mph 1011.6mb 69f
2:24am 11 18 mph 1011.6mb 69f
2:18am 11 15 mph 1011.6mb 69f
2:12am 13 15 mph 1011.6mb 69f
2:06am 13 16 mph 1011.6mb 69f
2:00am 11 15 mph 1011.6mb 69f
1:54am 13 15 mph 1011.5mb 69f
1:48am 13 17 mph 1011.5mb 69f
1:42am 14 17 mph 1011.5mb 69f
1:36am 13 17 mph 1011.5mb 69f
1:30am 11 16 mph 1011.5mb 70f
1:24am 14 16 mph 1011.5mb 70f
1:18am 14 17 mph 1011.5mb 70f
1:12am 13 16 mph 1011.5mb 70f
1:06am 13 16 mph 1011.5mb 70f
1:00am 13 17 mph 1011.5mb 70f
12:54am 13 16 mph 1011.5mb 70f
12:48am 14 16 mph 1011.5mb 71f
12:42am 13 15 mph 1011.5mb 70f
12:36am 13 15 mph 1011.5mb 70f
12:30am 13 15 mph 1011.5mb 71f
12:24am 11 14 mph 1011.6mb 70f
12:18am 11 14 mph 1011.5mb 71f
12:12am 11 13 mph 1011.6mb 71f
12:06am 11 13 mph 1011.6mb 71f
12:00am 10 11 mph 1011.7mb 71f
Thu 07/30 11:54pm 10 11 mph 1011.7mb 71f
11:48pm 9 11 mph 1011.7mb 71f
11:42pm 9 13 mph 1011.8mb 71f
11:36pm 11 14 mph 1011.8mb 72f
11:30pm 9 11 mph 1011.8mb 71f
11:24pm 9 11 mph 1011.9mb 72f
11:18pm 9 10 mph 1012mb 72f
11:12pm 9 10 mph 1012mb 72f
11:06pm 9 13 mph 1012mb 72f
11:00pm 10 13 mph 1012mb 72f
10:54pm 9 10 mph 1012mb 72f
10:48pm 9 11 mph 1012.1mb 73f
10:42pm 10 14 mph 1012.1mb 73f
10:36pm 11 14 mph 1012.1mb 73f
10:30pm 11 13 mph 1012.1mb 73f
10:24pm 11 13 mph 1012.1mb 73f
10:18pm 9 11 mph 1012.1mb 73f
10:12pm 8 9 mph 1012.1mb 73f
10:06pm 8 10 mph 1012.1mb 74f
10:00pm 7 10 mph 1012.1mb 74f
9:54pm 8 10 mph 1012.1mb 74f
9:48pm 8 11 mph 1012mb 74f
9:42pm 9 11 mph 1012mb 74f
9:36pm 9 11 mph 1011.9mb 74f
9:30pm 8 11 mph 1011.9mb 74f
9:24pm 7 9 mph 1011.9mb 74f
9:18pm 8 9 mph 1011.8mb 75f
9:12pm 8 10 mph 1011.7mb 75f
9:06pm 9 14 mph 1011.7mb 76f
9:00pm 10 11 mph 1011.6mb 76f
8:54pm 8 9 mph 1011.6mb 76f
8:48pm 8 10 mph 1011.6mb 77f
8:42pm 8 10 mph 1011.6mb 76f
8:36pm 8 11 mph 1011.5mb 76f
8:30pm 9 11 mph 1011.5mb 77f
8:24pm 9 11 mph 1011.5mb 77f
8:18pm 10 13 mph 1011.5mb 78f
8:12pm 13 16 mph 1011.4mb 78f
8:06pm 10 14 mph 1011.3mb 78f
8:00pm 11 14 mph 1011.3mb 78f
7:54pm 10 14 mph 1011.3mb 78f
7:48pm 10 15 mph 1011.3mb 79f
7:42pm 13 17 mph 1011.3mb 80f
7:36pm 13 16 mph 1011.3mb 80f
7:30pm 14 18 mph 1011.3mb 80f
7:24pm 13 20 mph 1011.3mb 80f
7:18pm 15 18 mph 1011.3mb 80f
7:12pm 14 17 mph 1011.3mb 80f
7:06pm 15 17 mph 1011.2mb 81f
7:00pm 13 21 mph 1011.2mb 81f
6:54pm 11 20 mph 1011.3mb 81f
6:48pm 15 20 mph 1011.2mb 81f
6:42pm 13 23 mph 1011.2mb 81f
6:36pm 14 21 mph 1011.2mb 81f
6:30pm 16 23 mph 1011.2mb 81f
6:24pm 16 23 mph 1011.2mb 81f
6:18pm 13 21 mph 1011.2mb 81f
6:12pm 16 22 mph 1011.2mb 81f
6:06pm 17 24 mph 1011.2mb 81f
6:00pm 11 20 mph 1011.2mb 81f
5:54pm 14 23 mph 1011.2mb 81f
5:48pm 15 22 mph 1011.3mb 81f
5:42pm 20 23 mph 1011.2mb 81f
5:36pm 18 26 mph 1011.3mb 81f
5:30pm 16 25 mph 1011.3mb 81f
5:24pm 22 28 mph 1011.4mb 81f
5:18pm 24 29 mph 1011.4mb 81f
5:12pm 15 22 mph 1011.4mb 82f
5:06pm 14 18 mph 1011.3mb 81f
5:00pm 14 21 mph 1011.4mb 82f
4:54pm 20 24 mph 1011.4mb 82f
4:48pm 16 24 mph 1011.4mb 81f
4:42pm 16 25 mph 1011.5mb 82f
4:36pm 13 23 mph 1011.5mb 82f
4:30pm 15 22 mph 1011.4mb 82f
4:24pm 17 24 mph 1011.4mb 82f
4:18pm 17 26 mph 1011.5mb 82f
4:12pm 13 25 mph 1011.5mb 82f
4:06pm 18 26 mph 1011.5mb 82f
4:00pm 17 23 mph 1011.6mb 82f
3:54pm 17 23 mph 1011.7mb 82f
3:48pm 18 28 mph 1011.7mb 81f
3:42pm 18 23 mph 1011.7mb 81f
3:36pm 20 25 mph 1011.7mb 81f
3:30pm 21 29 mph 1011.8mb 81f
3:24pm 20 29 mph 1011.8mb 81f
3:18pm 18 25 mph 1011.8mb -
3:12pm 17 28 mph 1011.9mb 82f
3:06pm 22 26 mph 1012mb 81f
3:00pm 17 28 mph 1012mb 81f
2:54pm 23 32 mph 1012mb 81f
2:48pm 20 25 mph 1011.9mb 81f
2:42pm 20 25 mph 1011.9mb 81f
2:36pm 22 30 mph 1011.9mb 80f
2:30pm 18 30 mph 1011.9mb 81f
2:24pm 16 24 mph 1011.8mb 81f
2:18pm 25 32 mph 1011.9mb 80f
2:12pm 18 25 mph 1011.9mb 81f
2:06pm 22 30 mph 1011.8mb 81f
2:00pm 18 26 mph 1011.9mb 81f
1:54pm 24 30 mph 1012mb 80f
1:48pm 16 22 mph 1012mb 81f
1:42pm 14 25 mph 1012.1mb 80f
1:36pm 21 24 mph 1012.1mb 80f
1:30pm 17 23 mph 1012.2mb 80f
1:24pm 21 29 mph 1012.2mb 80f
1:18pm 23 30 mph 1012.2mb 80f
1:12pm 22 28 mph 1012.1mb 80f
1:06pm 14 22 mph 1012.1mb 80f
1:00pm 17 28 mph 1012.2mb 79f
12:54pm 22 29 mph 1012.2mb 80f
12:48pm 22 28 mph 1012.2mb 80f
12:42pm 22 28 mph 1012.2mb 80f
12:36pm 16 26 mph 1012.2mb 80f
12:30pm 16 22 mph 1012.3mb 78f
12:24pm 15 20 mph 1012.2mb 79f
12:18pm 18 25 mph 1012.3mb 79f
12:12pm 16 21 mph 1012.3mb 79f
12:06pm 15 23 mph 1012.4mb 78f
12:00pm 18 23 mph 1012.5mb 78f
11:54am 15 21 mph 1012.6mb 78f
11:48am 16 22 mph 1012.7mb 78f
11:42am 18 24 mph 1012.6mb 78f
11:36am 17 23 mph 1012.7mb 77f
11:30am 15 20 mph 1012.6mb 77f
11:24am 9 20 mph 1012.7mb 77f
11:18am 13 21 mph 1012.6mb 77f
11:12am 15 22 mph 1012.7mb 77f
11:06am 14 22 mph 1012.7mb 77f
11:00am 15 20 mph 1012.7mb 76f
10:48am 13 16 mph 1012.6mb 76f
10:36am 11 21 mph 1012.7mb 76f
10:30am 10 17 mph 1012.7mb 76f
10:24am 8 13 mph 1012.7mb 75f
10:18am 8 14 mph 1012.8mb 75f
10:12am 14 18 mph 1012.8mb 75f
10:06am 10 16 mph 1012.8mb 75f
10:00am 13 16 mph 1012.8mb 74f
9:54am 11 15 mph 1012.7mb 74f
9:48am 10 17 mph 1012.7mb 74f
9:42am 11 17 mph 1012.8mb 74f
9:36am 7 14 mph 1012.7mb 74f
9:30am 7 13 mph 1012.8mb 74f
9:24am 8 14 mph 1012.8mb 73f
9:18am 7 13 mph 1012.8mb 73f
9:12am 8 14 mph 1012.8mb 73f
9:06am 11 15 mph 1012.7mb 73f
9:00am 9 14 mph - -
8:54am 9 15 mph 1012.7mb 72f
8:48am 10 16 mph 1012.6mb 72f
8:42am 11 16 mph 1012.6mb 71f
8:36am 14 18 mph 1012.5mb 71f
8:30am 10 15 mph 1012.6mb 71f
8:18am 8 13 mph 1012.5mb 71f
8:12am 8 13 mph 1012.4mb 70f
8:06am 9 15 mph 1012.4mb 70f
7:54am 10 14 mph 1012.4mb 69f
7:48am  -  mph - 69f
7:42am  -  mph - 68f
7:36am  -  mph - 68f
7:24am  -  mph - 68f
7:18am  -  mph - 67f
7:12am  -  mph - 67f
7:06am  -  mph - 67f
7:00am  -  mph - 67f
Wed 07/29 10:36pm  -  mph - 70f
10:30pm  -  mph - 70f
10:24pm  -  mph - 71f
10:18pm  -  mph - 71f
10:12pm  -  mph - 71f
10:06pm  -  mph - 71f
10:00pm  -  mph - 71f
9:54pm  -  mph - 72f
9:48pm  -  mph - 72f
9:42pm  -  mph - 72f
9:36pm  -  mph - 72f
9:30pm  -  mph - 72f
9:24pm  -  mph - 73f
9:18pm  -  mph - 73f
9:12pm  -  mph - 73f
9:06pm  -  mph - 74f
9:00pm  -  mph - 74f
8:54pm  -  mph - 74f
8:48pm 9 11 mph 1008.3mb 74f
8:42pm 10 13 mph 1008.3mb 75f
8:36pm 10 13 mph 1008.2mb 75f
8:30pm  -  mph - 75f
8:24pm  -  mph - 76f
8:18pm  -  mph - 76f
8:12pm  -  mph - 76f
8:06pm  -  mph - 76f
8:00pm  -  mph - 77f
7:54pm  -  mph - 77f
7:48pm 13 20 mph 1008.1mb 78f
7:42pm 14 20 mph 1008.1mb 77f
7:36pm 11 17 mph 1008.1mb 77f
7:30pm  -  mph 1008mb 78f
7:24pm  -  mph 1007.9mb 78f
7:18pm  -  mph 1007.9mb 78f
7:12pm  -  mph 1007.9mb 78f
7:06pm  -  mph 1007.8mb 78f
7:00pm  -  mph - 78f
6:54pm  -  mph - 79f
6:48pm  -  mph - 79f
6:42pm  -  mph - 79f
6:36pm  -  mph - 79f
6:30pm  -  mph - 79f
6:24pm  -  mph - 79f
6:18pm  -  mph - 79f
6:12pm  -  mph - 79f
6:06pm  -  mph - 79f
6:00pm 22 30 mph 1007.4mb 79f
5:54pm 18 23 mph 1007.3mb 79f
5:48pm 21 25 mph 1007.3mb 79f
5:42pm 15 22 mph 1007.3mb 79f
5:36pm 17 25 mph 1007.3mb 78f
5:30pm  -  mph - 79f
5:24pm  -  mph - 79f
5:18pm  -  mph - 79f
5:12pm  -  mph - 78f
5:06pm  -  mph - 78f
5:00pm  -  mph - 78f
4:54pm  -  mph - 78f
4:48pm  -  mph - 78f
4:42pm  -  mph - 77f
4:36pm  -  mph - 77f
4:30pm  -  mph - 77f
4:24pm  -  mph - 77f
4:18pm  -  mph - 77f
4:12pm  -  mph - 77f
4:06pm  -  mph - 76f
4:00pm  -  mph 1007.3mb 75f
3:54pm  -  mph 1007.2mb 75f
3:48pm  -  mph 1007.1mb 75f
3:42pm  -  mph 1007.1mb 75f
3:36pm  -  mph 1007.1mb 75f
3:30pm  -  mph 1007.1mb 75f
3:24pm  -  mph 1007.3mb 74f
3:18pm  -  mph - 74f
3:12pm  -  mph - 74f
3:06pm  -  mph - 74f
3:00pm  -  mph - 74f
2:54pm  -  mph - 74f
2:48pm  -  mph - 74f
2:42pm  -  mph - 74f
2:36pm  -  mph - 74f
2:30pm  -  mph - 73f
2:24pm  -  mph - 73f
2:18pm  -  mph - 74f
2:12pm  -  mph - 74f
2:06pm  -  mph - 74f
2:00pm  -  mph - 74f
1:54pm  -  mph - 74f
1:48pm  -  mph - 73f
1:42pm  -  mph - 73f
1:36pm  -  mph - 73f
1:30pm  -  mph - 72f
1:24pm  -  mph - 72f
1:18pm  -  mph - 72f
1:12pm  -  mph - 72f
1:06pm  -  mph - 72f
1:00pm  -  mph - 72f
12:54pm  -  mph - 71f
12:48pm  -  mph - 71f
12:42pm  -  mph - 71f
12:36pm  -  mph - 70f
12:30pm  -  mph - 70f
12:24pm  -  mph - 70f
12:18pm 21 25 mph 1006.6mb 70f
12:12pm 22 30 mph 1006.6mb 70f
12:06pm 24 29 mph 1006.6mb 70f
12:00pm 17 31 mph 1006.5mb 70f
11:54am 23 32 mph 1006.5mb 70f
11:48am 22 32 mph 1006.6mb 70f
10:54am 21 32 mph 1006.1mb 70f
10:48am 29 37 mph 1006.1mb 70f
10:42am 24 32 mph 1006.1mb 70f
10:36am 18 30 mph 1006mb 70f
10:30am 26 33 mph 1005.9mb 70f
10:24am 24 30 mph 1005.9mb 70f
10:18am 23 28 mph 1005.8mb 70f
10:12am 22 31 mph 1005.7mb 70f
10:06am 22 31 mph 1005.7mb 70f
10:00am 20 28 mph 1005.6mb 70f
9:54am 23 32 mph 1005.6mb 70f
9:48am  -  mph 1005.6mb -
9:42am 20 26 mph 1005.6mb 69f
9:36am 24 31 mph 1005.6mb 69f
9:30am 24 30 mph 1005.6mb 69f
9:24am 23 31 mph 1005.6mb 69f
9:18am 20 26 mph 1005.6mb 69f
9:12am 21 31 mph 1005.6mb 69f
9:06am 22 28 mph 1005.6mb 69f
9:00am 18 26 mph 1005.6mb 69f
8:54am 18 29 mph 1005.6mb 69f
8:48am 22 30 mph 1005.7mb 69f
8:42am 21 26 mph 1005.6mb 69f
8:36am 20 31 mph 1005.7mb 69f
8:30am 25 32 mph 1005.7mb 69f
8:24am 21 28 mph 1005.7mb 69f
8:18am 18 24 mph 1005.7mb 69f
8:12am 21 26 mph 1005.7mb 69f
8:06am 16 26 mph 1005.7mb 69f
8:00am 15 24 mph 1005.7mb 69f
7:54am 20 22 mph 1005.7mb 69f
7:48am 17 22 mph 1005.6mb 69f
7:42am 16 21 mph 1005.6mb 69f
7:36am 17 23 mph 1005.5mb 69f
7:30am 18 25 mph 1005.5mb 69f
7:24am 14 23 mph 1005.5mb 69f
7:18am 20 22 mph 1005.5mb 69f
7:12am 18 23 mph 1005.3mb 69f
7:06am 22 29 mph 1005.4mb 69f
7:00am 16 22 mph 1005.4mb 69f
6:54am 16 21 mph 1005.4mb 68f
6:48am 17 23 mph 1005.3mb 69f
6:42am 21 28 mph 1005.2mb 69f
6:36am 21 24 mph 1005.2mb 69f
6:30am 18 24 mph 1005.1mb 68f
6:24am 18 25 mph 1005.1mb 68f
6:18am 20 25 mph 1005.2mb 68f
6:12am 14 20 mph 1005.1mb 68f
6:06am 18 22 mph 1005.3mb 68f
6:00am 20 25 mph 1005.3mb 68f
5:54am 17 22 mph 1005.2mb 67f
5:48am 15 17 mph 1005.3mb 67f
5:42am 16 20 mph 1005.2mb 66f
5:36am 18 22 mph 1005.3mb 66f
5:30am 18 21 mph 1005.3mb 67f
5:24am 17 23 mph 1005.3mb 67f
5:18am 14 17 mph 1005.3mb 67f
5:12am 14 21 mph 1005.2mb 67f
5:06am 14 20 mph 1005.2mb 67f
5:00am 13 17 mph 1005.2mb 67f
4:54am 10 15 mph 1005.3mb 67f
4:48am 14 18 mph 1005.2mb 67f
4:42am 14 21 mph 1005.2mb 67f
4:36am 15 20 mph 1005.2mb 68f
4:30am 13 17 mph 1005.2mb 68f
4:24am 14 21 mph 1005.2mb 68f
4:18am 14 18 mph 1005.3mb 68f
4:12am 13 21 mph 1005.2mb 68f
4:06am 18 22 mph 1005.3mb 68f
4:00am 18 22 mph 1005.4mb 68f
3:54am 18 22 mph 1005.4mb 68f
3:48am 17 22 mph 1005.4mb 68f
3:42am 16 22 mph 1005.4mb 69f
3:36am 18 23 mph 1005.5mb 69f
3:30am 17 25 mph 1005.5mb 69f
3:24am 18 23 mph 1005.6mb 69f
3:18am 16 22 mph 1005.7mb 69f
3:12am 17 22 mph 1005.8mb 69f
3:06am 14 17 mph 1005.8mb 69f
3:00am 13 16 mph 1005.9mb 69f
2:54am 15 17 mph 1006mb 70f
2:48am 13 17 mph 1006mb 70f
2:42am 14 21 mph 1006.1mb 70f
2:36am 13 16 mph 1006.2mb 70f
2:30am 10 15 mph 1006.3mb 70f
2:24am 14 16 mph 1006.5mb 71f
2:18am 15 18 mph 1006.6mb 71f
2:12am 16 18 mph 1006.6mb 71f
2:06am 15 18 mph 1006.7mb 71f
2:00am 14 18 mph 1006.8mb 71f
1:54am 14 16 mph 1006.9mb 71f
1:48am 14 17 mph - 72f
1:42am 13 16 mph - 72f
1:36am 13 20 mph - 72f
1:30am 13 21 mph 1007.2mb 72f
1:24am 15 20 mph 1007.3mb 73f
1:18am 15 18 mph 1007.3mb 73f
1:12am 11 14 mph 1007.3mb 73f
1:06am 10 15 mph 1007.3mb 73f
1:00am 13 17 mph 1007.4mb 73f
12:54am 11 16 mph 1007.5mb 73f
12:48am 15 18 mph 1007.4mb 74f
12:42am 15 20 mph 1007.5mb 74f
12:36am 13 18 mph 1007.8mb 73f
12:30am 13 16 mph 1007.8mb 73f
12:24am 13 15 mph 1007.8mb 73f
12:18am 11 15 mph 1007.7mb 73f
12:12am 13 15 mph 1007.8mb 74f
12:06am 10 14 mph 1007.9mb 74f
12:00am 11 14 mph 1007.9mb 74f
Tue 07/28 11:54pm 10 15 mph 1008mb 74f
11:48pm 10 13 mph 1008.1mb 74f
11:42pm 10 14 mph 1008.1mb 75f
11:36pm 10 14 mph 1008mb 75f
11:30pm 13 17 mph 1008.1mb 75f
11:24pm 13 20 mph 1008.1mb 75f
11:18pm 14 18 mph 1008mb 75f
11:12pm 15 20 mph 1007.9mb 75f
11:06pm 17 20 mph 1007.7mb 76f
11:00pm 14 23 mph 1007.6mb 76f
10:54pm 16 23 mph 1007.5mb 76f
10:48pm 16 21 mph 1007.5mb 77f
10:42pm 15 22 mph 1007.3mb 77f
10:36pm 18 25 mph 1007.3mb 77f
10:30pm 18 24 mph 1007.1mb 78f
10:24pm 17 21 mph 1007mb 78f
10:18pm 17 25 mph 1007mb 79f
10:12pm 21 25 mph 1006.9mb 79f
10:06pm 16 21 mph 1007mb 79f
10:00pm 11 14 mph 1006.9mb 79f
9:54pm 14 17 mph 1006.8mb 80f
9:48pm 11 16 mph 1006.9mb 79f
9:42pm 10 14 mph 1007mb 79f
9:36pm 8 14 mph 1007mb 79f
9:30pm 11 14 mph 1006.9mb 79f
9:24pm 10 14 mph 1006.8mb 79f
9:18pm 10 13 mph 1006.8mb 79f
9:12pm 11 13 mph 1006.8mb 79f
9:06pm 10 13 mph 1006.6mb 79f
9:00pm 10 14 mph 1006.6mb 79f
8:54pm 8 14 mph 1006.5mb 79f
8:48pm 10 13 mph 1006.6mb 80f
8:42pm 9 15 mph 1006.5mb 80f
8:36pm 13 14 mph 1006.5mb 80f
8:30pm 10 13 mph 1006.5mb 80f
8:24pm 8 11 mph 1006.5mb 80f
8:18pm 7 13 mph 1006.3mb 81f
8:12pm 8 13 mph 1006.4mb 81f
8:06pm 9 11 mph 1006.4mb 81f
8:00pm 9 13 mph 1006.3mb 81f
7:54pm 9 13 mph 1006.3mb 81f
7:48pm 10 13 mph - 81f
7:42pm 10 14 mph - 82f
7:36pm 8 11 mph - 82f
7:30pm 8 14 mph - 82f
7:24pm 7 14 mph - 82f
7:18pm 10 14 mph - 82f
7:12pm 9 14 mph - 82f
7:06pm 9 14 mph - 82f
7:00pm 9 16 mph - 82f
6:54pm 13 18 mph - 83f
6:48pm 14 17 mph - 83f
6:42pm 9 14 mph - 83f
6:36pm 9 14 mph - 83f
6:30pm 10 16 mph - 83f
6:24pm 9 15 mph - 83f
6:18pm 11 20 mph - 83f
6:12pm 13 17 mph - 84f
6:06pm 11 18 mph - 83f
6:00pm 9 14 mph - 83f
5:54pm 13 16 mph - 84f
5:48pm 13 16 mph - 85f
5:42pm 10 16 mph - 85f
5:36pm 10 17 mph - 85f
5:30pm 14 16 mph - 85f
5:24pm 11 15 mph - 85f
5:18pm 11 16 mph - 85f
5:12pm 11 16 mph - 86f
5:06pm 14 16 mph - 86f
5:00pm 11 15 mph - 86f
4:54pm 11 16 mph - 86f
4:48pm 11 15 mph - 86f
4:42pm 11 17 mph - 85f
4:36pm 15 18 mph - 84f
4:30pm 13 16 mph - 85f
4:24pm 9 15 mph - 85f
4:18pm 13 16 mph - 86f
4:12pm 11 18 mph - 86f
4:06pm 14 20 mph - 86f
4:00pm 13 18 mph - 85f
3:54pm 15 22 mph - 84f
3:48pm 13 20 mph - 84f
3:42pm 15 20 mph - 83f
3:36pm 15 21 mph - 85f
3:30pm 15 24 mph - 85f
3:24pm 17 23 mph - 85f
3:18pm 15 21 mph - 85f
3:12pm 20 24 mph - 84f
3:06pm 15 21 mph - 85f
3:00pm 15 21 mph - 84f
2:54pm 14 25 mph - 84f
2:48pm 17 24 mph - 84f
2:42pm 18 23 mph - 84f
2:36pm 17 22 mph - 83f
2:30pm 16 20 mph - 84f
2:24pm 18 24 mph - 83f
2:18pm 20 23 mph - 83f
2:12pm 17 22 mph - 83f
2:06pm 16 22 mph - 83f
2:00pm 16 29 mph - 83f
1:54pm 17 29 mph - 83f
1:48pm 23 29 mph - 83f
1:42pm 18 28 mph - 83f
1:36pm 16 21 mph - 83f
1:30pm 16 24 mph - 82f
1:24pm 17 28 mph - 82f
1:18pm 17 24 mph - 82f
1:12pm 17 24 mph - 82f
1:06pm 17 24 mph - 81f
1:00pm 15 25 mph - 80f
12:54pm 20 26 mph - 80f
12:48pm 21 28 mph - 80f
12:42pm 22 29 mph - 80f
12:36pm 18 23 mph - 80f
12:30pm 15 26 mph - 80f
12:24pm 15 18 mph - 79f
12:18pm 15 22 mph - 79f
12:12pm 18 25 mph - 78f
12:06pm 18 24 mph - 78f
12:00pm 17 23 mph - 78f
11:54am 14 22 mph - 79f
11:48am 16 21 mph - 79f
11:42am 13 17 mph - 78f
11:36am 14 20 mph - 78f
11:30am 13 16 mph - 78f
11:24am 11 17 mph - 78f
11:18am 14 20 mph - 78f
11:12am 13 17 mph - 78f
11:06am 8 14 mph - 78f
11:00am 9 14 mph - 77f
10:54am 7 14 mph - 76f
10:48am 9 14 mph - 76f
10:42am 7 11 mph - 76f
10:36am 6 7 mph - 76f
10:30am 5 6 mph - 76f
10:24am 5 11 mph - 76f
10:18am 7 15 mph - 76f
10:12am 11 17 mph - 76f
10:06am 9 17 mph - 76f
10:00am 9 14 mph - 77f
9:54am 8 13 mph - 77f
9:48am 8 14 mph - 76f
9:42am 9 15 mph - 76f
9:36am 8 14 mph - 76f
9:30am 11 15 mph - 75f
9:24am 7 10 mph - 74f
9:18am 3 11 mph - 72f
9:12am 6 11 mph - 71f
9:06am 6 9 mph - 71f
9:00am 7 11 mph - 71f
8:42am 8 11 mph - 71f
8:36am 7 13 mph - 71f
8:30am 8 13 mph - 71f
8:24am 9 14 mph - 71f
8:18am 7 14 mph - 70f
8:12am 8 14 mph - 70f
8:06am 8 14 mph - 70f
8:00am 9 14 mph - 70f
7:54am 8 16 mph - 70f